User: anonymous   Login
Location: Hepcat Sky Observatory
(29.9800°N, 95.6500°W)
Time: 05:23:31
(UTC-05:00)
Language:

ALOS - Orbit

View from above orbital plane
View from above orbital plane
View from above satellite
View from above satellite

Ground track
Ground track

The orbit data is extracted from the following two-line orbital elements,

1 28931U 06002A   15149.04565680  .00000368  00000-0  82544-4 0  9999
2 28931 097.9326 199.2134 0002131 123.0516 237.0891 14.61864868497849
Epoch (UTC): 29 May 2015 01:05:44
Eccentricity: 0.0002131
inclination: 97.9326°
perigee height: 685 km
apogee height: 688 km
right ascension of ascending node: 199.2134°
argument of perigee: 123.0516°
revolutions per day: 14.61864868
mean anomaly at epoch: 237.0891°
orbit number at epoch: 49784

The dashed part of the orbit path shows where the satellite is in the earth's shadow,  

DLR